| time (UTC) | temp F | wind direction | speed knots | gust knots | rain 1hr in | rain 24hr in | rain mn in | humidity % | barometer mb |
| 20260508033013 | 46 | 259 | 3.5 | 6.1 | 0.00 | 0.37 | 0.00 | 96 | 1003.2 |
| 20260508031507 | 46 | 180 | 2.6 | 4.3 | 0.00 | 0.37 | 0.00 | 98 | 1003.2 |
| 20260508030002 | 44 | 218 | 2.6 | 6.1 | 0.00 | 0.37 | 0.37 | 98 | 1003.3 |
| 20260508024501 | 45 | 215 | 2.6 | 4.3 | 0.00 | 0.37 | 0.37 | 97 | 1003.1 |
| 20260508023000 | 46 | 240 | 1.7 | 4.3 | 0.00 | 0.37 | 0.37 | 97 | 1003.1 |
| 20260508021601 | 47 | 202 | 3.5 | 6.1 | 0.00 | 0.37 | 0.37 | 97 | 1002.7 |
| 20260508020108 | 47 | 205 | 4.3 | 6.1 | 0.00 | 0.37 | 0.37 | 97 | 1003.0 |
| 20260508014620 | 45 | 194 | 3.5 | 6.1 | 0.00 | 0.37 | 0.37 | 97 | 1003.2 |
| 20260508013100 | 45 | 215 | 2.6 | 3.5 | 0.00 | 0.37 | 0.37 | 96 | 1003.0 |
| 20260508011612 | 45 | 201 | 2.6 | 4.3 | 0.00 | 0.37 | 0.37 | 97 | 1003.0 |
| 20260508010054 | 44 | 242 | 3.5 | 6.1 | 0.00 | 0.37 | 0.37 | 96 | 1003.2 |
| 20260508004555 | 45 | 207 | 3.5 | 6.1 | 0.00 | 0.37 | 0.37 | 95 | 1003.6 |
| 20260508003053 | 46 | 257 | 6.1 | 7.0 | 0.00 | 0.37 | 0.37 | 95 | 1003.4 |
| 20260508001551 | 49 | 222 | 5.2 | 8.7 | 0.00 | 0.37 | 0.37 | 95 | 1003.1 |
| 20260508000050 | 50 | 169 | 2.6 | 11.3 | 0.00 | 0.37 | 0.37 | 96 | 1003.3 |
| 20260507234549 | 50 | 195 | 5.2 | 7.8 | 0.00 | 0.37 | 0.37 | 96 | 1003.3 |
| 20260507233049 | 50 | 201 | 6.1 | 10.4 | 0.00 | 0.37 | 0.37 | 96 | 1003.5 |
| 20260507231552 | 50 | 200 | 7.0 | 13.0 | 0.00 | 0.37 | 0.37 | 96 | 1003.5 |
| 20260507230048 | 50 | 190 | 7.0 | 13.0 | 0.00 | 0.37 | 0.37 | 96 | 1003.8 |
| 20260507224549 | 50 | 206 | 7.0 | 9.6 | 0.01 | 0.37 | 0.37 | 96 | 1003.5 |
| 20260507223047 | 49 | 205 | 4.3 | 8.7 | 0.01 | 0.37 | 0.37 | 96 | 1003.8 |
| 20260507221546 | 49 | 232 | 7.0 | 10.4 | 0.01 | 0.37 | 0.37 | 96 | 1003.9 |
| 20260507220045 | 50 | 184 | 3.5 | 11.3 | 0.01 | 0.37 | 0.37 | 95 | 1004.0 |
| 20260507214548 | 49 | 236 | 7.0 | 13.0 | 0.00 | 0.36 | 0.36 | 94 | 1004.0 |
| 20260507213043 | 49 | 172 | 3.5 | 12.2 | 0.02 | 0.36 | 0.36 | 93 | 1004.0 |
| 20260507211545 | 50 | 219 | 4.3 | 27.8 | 0.06 | 0.36 | 0.36 | 94 | 1003.1 |
| 20260507210041 | 50 | 140 | 15.6 | 24.3 | 0.09 | 0.36 | 0.36 | 94 | 1003.4 |
| 20260507204539 | 50 | 150 | 6.1 | 15.6 | 0.13 | 0.36 | 0.36 | 94 | 1004.1 |
| 20260507203038 | 49 | 223 | 3.5 | 8.7 | 0.12 | 0.34 | 0.34 | 94 | 1004.8 |
| 20260507201535 | 50 | 217 | 6.1 | 19.1 | 0.14 | 0.31 | 0.31 | 94 | 1004.9 |
| 20260507200034 | 50 | 184 | 9.6 | 19.1 | 0.15 | 0.27 | 0.27 | 96 | 1005.3 |
| 20260507194533 | 46 | 232 | 13.0 | 22.6 | 0.13 | 0.23 | 0.23 | 95 | 1006.4 |
| 20260507193034 | 48 | 223 | 9.6 | 21.7 | 0.17 | 0.21 | 0.21 | 90 | 1006.1 |
| 20260507191533 | 53 | 186 | 9.6 | 21.7 | 0.13 | 0.17 | 0.17 | 93 | 1005.7 |
| 20260507190028 | 53 | 157 | 12.2 | 19.1 | 0.09 | 0.12 | 0.12 | 93 | 1005.7 |
| 20260507184527 | 53 | 158 | 13.0 | 20.9 | 0.06 | 0.09 | 0.09 | 93 | 1006.2 |
| 20260507183040 | 53 | 207 | 11.3 | 21.7 | 0.01 | 0.04 | 0.04 | 92 | 1006.7 |
| 20260507181529 | 54 | 185 | 12.2 | 21.7 | 0.00 | 0.03 | 0.03 | 91 | 1006.3 |
| 20260507180031 | 54 | 169 | 12.2 | 31.3 | 0.00 | 0.03 | 0.03 | 90 | 1006.0 |
| 20260507174523 | 55 | 174 | 10.4 | 26.1 | 0.00 | 0.03 | 0.03 | 89 | 1006.2 |
| 20260507173021 | 55 | 172 | 13.0 | 20.9 | 0.00 | 0.03 | 0.03 | 90 | 1006.5 |
| 20260507171519 | 55 | 185 | 16.5 | 25.2 | 0.00 | 0.03 | 0.03 | 90 | 1007.0 |
| 20260507170018 | 55 | 191 | 11.3 | 27.8 | 0.00 | 0.03 | 0.03 | 91 | 1007.2 |
| 20260507164515 | 55 | 213 | 15.6 | 23.5 | 0.00 | 0.03 | 0.03 | 90 | 1007.7 |
| 20260507163013 | 56 | 160 | 12.2 | 25.2 | 0.00 | 0.03 | 0.03 | 90 | 1007.8 |
| 20260507161511 | 56 | 178 | 13.9 | 21.7 | 0.00 | 0.03 | 0.03 | 90 | 1008.3 |
| 20260507160017 | 55 | 204 | 12.2 | 22.6 | 0.00 | 0.03 | 0.03 | 90 | 1008.8 |
| 20260507154505 | 55 | 179 | 15.6 | 25.2 | 0.00 | 0.03 | 0.03 | 91 | 1009.2 |
| 20260507153001 | 55 | 158 | 13.0 | 21.7 | 0.00 | 0.03 | 0.03 | 91 | 1009.6 |
| 20260507151600 | 55 | 167 | 10.4 | 23.5 | 0.00 | 0.03 | 0.03 | 91 | 1009.9 |
| 20260507144558 | 55 | 185 | 14.8 | 28.7 | 0.00 | 0.03 | 0.03 | 91 | 1010.1 |
| 20260507143056 | 55 | 219 | 13.0 | 26.1 | 0.00 | 0.03 | 0.03 | 91 | 1010.8 |
| 20260507141551 | 55 | 197 | 13.0 | 26.1 | 0.00 | 0.03 | 0.03 | 92 | 1011.1 |
| 20260507134552 | 54 | 180 | 13.9 | 23.5 | 0.00 | 0.03 | 0.03 | 91 | 1011.3 |
| 20260507133058 | 54 | 200 | 14.8 | 25.2 | 0.00 | 0.03 | 0.03 | 91 | 1011.8 |
| 20260507131549 | 55 | 193 | 12.2 | 22.6 | 0.00 | 0.03 | 0.03 | 91 | 1011.5 |
| 20260507124602 | 54 | 183 | 13.9 | 26.1 | 0.00 | 0.03 | 0.03 | 92 | 1011.5 |
| 20260507123045 | 54 | 147 | 14.8 | 26.1 | 0.00 | 0.03 | 0.03 | 92 | 1011.4 |
| 20260507121541 | 54 | 162 | 15.6 | 31.3 | 0.00 | 0.03 | 0.03 | 93 | 1012.2 |
| 20260507120039 | 54 | 171 | 14.8 | 22.6 | 0.00 | 0.03 | 0.03 | 92 | 1012.8 |
| 20260507114553 | 54 | 195 | 12.2 | 24.3 | 0.00 | 0.03 | 0.03 | 93 | 1013.1 |
| 20260507113037 | 54 | 221 | 11.3 | 22.6 | 0.00 | 0.03 | 0.03 | 93 | 1013.2 |
| 20260507111534 | 54 | 181 | 12.2 | 28.7 | 0.00 | 0.03 | 0.03 | 93 | 1013.6 |
| 20260507110039 | 54 | 180 | 13.0 | 23.5 | 0.00 | 0.03 | 0.03 | 93 | 1013.0 |
| 20260507104533 | 53 | 185 | 12.2 | 19.1 | 0.00 | 0.03 | 0.03 | 93 | 1013.6 |
| 20260507103028 | 53 | 177 | 13.9 | 26.1 | 0.00 | 0.03 | 0.03 | 93 | 1013.5 |
| 20260507101528 | 53 | 165 | 13.9 | 27.8 | 0.00 | 0.03 | 0.03 | 92 | 1013.5 |
| 20260507100027 | 53 | 167 | 13.9 | 23.5 | 0.00 | 0.03 | 0.03 | 93 | 1013.7 |
| 20260507094527 | 53 | 160 | 9.6 | 22.6 | 0.00 | 0.03 | 0.03 | 93 | 1013.6 |
| 20260507093034 | 53 | 180 | 13.0 | 25.2 | 0.00 | 0.03 | 0.03 | 93 | 1013.4 |
| 20260507091536 | 54 | 177 | 12.2 | 25.2 | 0.01 | 0.03 | 0.03 | 93 | 1014.0 |
| 20260507090024 | 54 | 171 | 15.6 | 26.1 | 0.01 | 0.03 | 0.03 | 93 | 1013.6 |
| 20260507084525 | 54 | 191 | 14.8 | 25.2 | 0.02 | 0.03 | 0.03 | 94 | 1014.0 |
| 20260507083020 | 53 | 212 | 8.7 | 19.1 | 0.03 | 0.03 | 0.03 | 94 | 1014.1 |
| 20260507081519 | 52 | 153 | 9.6 | 18.2 | 0.02 | 0.02 | 0.02 | 94 | 1014.2 |
| 20260507080014 | 52 | 165 | 7.0 | 11.3 | 0.02 | 0.02 | 0.02 | 95 | 1014.4 |
| 20260507074510 | 51 | 203 | 7.0 | 13.0 | 0.01 | 0.01 | 0.01 | 95 | 1014.7 |
| 20260507073009 | 52 | 224 | 5.2 | 12.2 | 0.00 | 0.00 | 0.00 | 94 | 1015.1 |
| 20260507071510 | 51 | 183 | 9.6 | 16.5 | 0.00 | 0.00 | 0.00 | 94 | 1015.0 |
| 20260507070011 | 52 | 190 | 17.4 | 26.1 | 0.00 | 0.00 | 0.00 | 94 | 1015.2 |
| 20260507064506 | 53 | 170 | 13.0 | 21.7 | 0.00 | 0.00 | 0.00 | 95 | 1015.1 |
| 20260507063013 | 53 | 161 | 12.2 | 19.1 | 0.00 | 0.00 | 0.00 | 95 | 1015.4 |
| 20260507061602 | 52 | 173 | 9.6 | 15.6 | 0.00 | 0.00 | 0.00 | 96 | 1015.3 |
| 20260507060059 | 52 | 178 | 10.4 | 17.4 | 0.00 | 0.00 | 0.00 | 96 | 1015.6 |
| 20260507054557 | 52 | 186 | 7.8 | 17.4 | 0.00 | 0.00 | 0.00 | 97 | 1016.0 |
| 20260507053053 | 50 | 217 | 7.8 | 13.9 | 0.00 | 0.00 | 0.00 | 98 | 1016.2 |
| 20260507051554 | 51 | 192 | 6.1 | 11.3 | 0.00 | 0.00 | 0.00 | 98 | 1016.2 |
| 20260507050047 | 47 | 242 | 7.0 | 11.3 | 0.00 | 0.00 | 0.00 | 97 | 1017.0 |
| 20260507044546 | 47 | 208 | 2.6 | 12.2 | 0.00 | 0.00 | 0.00 | 96 | 1017.5 |
| 20260507043043 | 46 | 236 | 3.5 | 7.8 | 0.00 | 0.00 | 0.00 | 97 | 1017.7 |
| 20260507041541 | 46 | 220 | 4.3 | 7.0 | 0.00 | 0.00 | 0.00 | 96 | 1018.2 |
| 20260507040140 | 47 | 257 | 6.1 | 8.7 | 0.00 | 0.00 | 0.00 | 96 | 1018.3 |
| 20260507034540 | 47 | 250 | 6.1 | 9.6 | 0.00 | 0.00 | 0.00 | 96 | 1018.6 |